Find Local Weather

World > North America > United States > New York

Holbrook, New York Regional Weather

Lat: 40.79N, Lon: 73.07W
Wx Zone: NYZ080
Feedback

Holbrook, NY Regional Weather

Expires:201905212200;;241970
ASUS41 KOKX 212114
RWROKX

Regional Weather Roundup
National Weather Service New York NY
500 PM EDT TUE MAY 21 2019

Note: "FAIR" indicates few or no clouds below 12,000 feet with no
significant weather and/or obstructions to visibility.


NYZ177-179-078>081-212200-
Long Island New York
  
CITY           SKY/WX    TMP DP  RH WIND       PRES   REMARKS
Jones Beach      N/A     70 N/A N/A NW18G28     N/A                   
Wantagh          N/A     72  37  28 NW12        N/A                   
Hempstead        N/A     72  39  30 NW14      29.93S                  
Matinecock Pt    N/A     68 N/A N/A NW24        N/A                   
Farmingdale    FAIR      71  34  25 NW14G25   29.89S                  
MacArthur/ISP  FAIR      73  36  25 NW17G23   29.88S                  
Stony Brook      N/A     68  43  40 NW6         N/A                   
Shirley        FAIR      72  32  23 NW17G30   29.87F                  
Mt Sinai Harb    N/A    N/A N/A N/A NW9         N/A                   
Westhampton    FAIR      71  36  27 NW20G28   29.88S                  
East Hampton   FAIR      68  39  34 NW13G20   29.86R                  
Southold         N/A     66  45  45 NW12        N/A                   
Montauk          N/A     67  40  37 NW13G21   29.86R                  
$$
 

SKY/WX - Weather  TMP - Temperature  DP - Dew Point  RH - Relative Humidity
WIND - Wind Direction/Speed PRES - Barometric Pressure VSB - Visibility
WCI - Wind Chill Index E13G22 Wind - East Wind 13 mph/Gusts of 22 mph